GFSSE_con_3kmhel_264.txt.gz
Helicity
167 145 83 86 61 30 19 17 15 16 16 17 16 15 15 12 14 15 9 -1 -6 -15 -15 -10 19 33 28 28 35 40 43 46 38 9 16 19 23 25 17 -1 3 4 8
192 130 83 92 55 40 22 21 20 23 22 15 20 6 12 10 10 5 3 0 -1 -6 -7 -3 11 9 13 15 27 25 14 -7 -7 -7 2 7 15 29 40 69 17 13 16
221 137 84 87 53 45 37 22 26 35 30 13 17 15 8 13 10 6 1 2 1 0 -5 -5 -1 4 5 14 16 5 -3 -8 -16 -26 -11 -2 17 25 36 31 14 17 13
175 130 86 77 59 45 54 35 27 42 44 23 15 19 11 12 16 20 19 6 -1 -1 -3 -8 -5 -1 3 7 2 -7 -19 -27 -39 -22 20 -12 2 13 16 10 8 15 21
117 105 65 84 74 46 58 47 40 48 50 35 26 30 16 16 25 23 21 18 9 -1 -2 -11 -10 -3 9 7 -9 -12 -15 -6 -3 17 48 12 5 13 18 19 17 9 23
86 73 69 77 99 55 56 54 40 58 66 53 31 31 39 28 33 26 17 18 14 6 -2 -8 -5 6 6 1 -9 -8 2 17 32 84 40 44 42 34 27 28 35 29 32
65 117 65 58 105 72 63 62 44 61 79 66 52 34 41 37 39 33 34 23 10 15 13 12 13 13 7 -1 -4 6 26 54 79 43 51 93 49 47 40 38 37 38 36
141 103 68 40 69 90 71 67 57 63 78 80 57 37 40 37 36 37 30 28 26 29 32 29 29 23 13 1 0 15 48 39 31 -2 109 61 57 55 54 51 50 47 46
182 106 88 34 31 56 89 86 66 64 76 73 69 47 34 25 34 26 23 27 31 33 35 34 33 26 15 7 9 21 39 40 45 76 142 86 67 66 66 61 58 54 50
168 100 88 63 31 27 41 72 72 65 73 66 56 44 37 28 16 22 26 29 28 25 32 33 30 25 14 9 8 20 45 37 46 49 90 43 59 72 64 61 60 54 51
164 79 73 55 48 34 25 32 63 59 66 63 48 31 31 5 2 14 -3 28 20 19 20 26 28 17 8 5 -3 6 37 45 96 18 128 103 82 86 76 71 69 58 50
114 88 79 51 44 47 42 51 29 33 35 30 21 17 4 -14 -9 -5 12 29 13 16 14 15 14 5 5 6 1 -3 18 57 49 28 102 98 98 100 92 83 74 65 55
102 68 65 61 47 51 62 94 67 38 27 12 2 14 -12 -22 -9 -15 67 38 31 16 18 14 13 2 -8 15 29 25 1 40 7 34 63 63 79 99 106 97 85 75 63
113 91 79 74 80 46 85 104 89 80 62 39 13 18 -15 -34 24 -3 53 36 25 28 1 14 2 -10 -21 5 -18 20 -18 26 24 66 78 84 83 101 119 113 99 85 76
79 112 124 93 96 70 80 91 73 77 72 59 64 41 1 -14 52 13 14 31 34 49 11 42 1 23 -12 -24 -4 32 46 28 24 37 100 87 91 97 117 123 111 97 89
20 137 144 104 103 91 87 105 63 82 79 70 74 74 34 27 48 32 -26 56 34 46 38 22 37 44 42 27 15 26 34 42 45 58 79 114 109 114 122 131 125 114 100
38 57 225 172 108 101 109 120 74 105 116 88 91 81 77 51 79 64 2 48 44 23 72 24 56 22 85 45 52 70 75 53 53 48 76 91 126 115 116 128 132 134 122
19 24 191 237 209 133 133 186 111 134 135 128 93 104 104 67 92 82 52 46 36 72 90 79 76 92 64 80 70 66 81 91 77 82 72 70 79 111 115 119 131 133 141
17 84 131 204 253 232 144 155 157 119 121 152 133 154 149 101 96 116 70 64 79 108 121 112 105 102 105 92 75 84 93 99 102 98 106 107 89 59 90 117 131 128 146
96 51 125 214 240 266 218 143 191 176 177 140 151 143 174 150 120 101 105 79 131 131 131 159 138 129 114 123 90 68 104 126 119 109 98 122 155 134 99 71 117 126 134
107 137 88 172 207 285 245 182 185 184 167 165 167 141 183 178 148 140 142 120 154 179 175 153 149 134 137 113 126 95 100 141 155 150 142 125 113 123 141 135 138 157 127
176 139 51 54 218 226 256 222 161 195 188 185 172 202 193 203 171 168 151 156 157 202 204 185 172 168 157 171 163 141 111 101 115 141 129 97 79 88 119 139 149 150 141
100 159 249 40 145 200 172 205 189 162 174 180 174 142 185 240 201 160 153 134 159 189 215 208 219 213 197 162 200 201 137 118 102 128 179 212 119 71 69 65 83 126 155
454 273 290 294 223 116 109 124 132 153 178 204 167 188 143 198 249 225 205 154 119 185 201 207 202 248 233 216 198 198 117 177 179 154 212 182 144 150 129 106 97 126 174
370 309 237 315 368 428 144 103 125 105 170 147 174 200 179 183 198 205 194 163 158 133 200 202 230 210 251 219 208 240 207 151 149 191 185 248 248 243 177 129 118 121 150
287 258 216 260 324 409 409 213 118 111 117 227 247 214 218 200 208 178 163 197 181 191 141 225 208 243 228 234 207 169 274 291 240 270 253 195 207 262 272 255 201 169 152

GFSSE_con_3kmhel_267.txt.gz
Helicity
63 102 68 99 82 48 9 12 -0 29 46 53 44 39 43 55 69 70 73 68 46 38 20 16 20 23 5 4 13 15 13 33 49 28 24 11 -3 -2 12 9 8 5 11
157 85 91 95 89 48 15 11 1 14 34 48 38 31 27 37 43 43 33 26 31 29 18 8 13 12 8 7 9 6 8 8 10 17 29 24 24 44 38 15 13 11 17
203 115 78 99 99 49 26 13 5 14 25 38 33 34 22 19 23 17 15 7 16 18 7 4 6 9 9 11 8 -0 -10 -11 -7 2 11 3 7 25 28 15 13 17 19
203 139 65 96 113 60 33 22 8 20 22 28 24 30 24 16 18 16 14 13 14 10 -2 -3 -2 -1 5 3 -10 -26 -37 -47 -43 10 -12 -7 2 17 22 21 21 25 28
174 108 68 71 122 77 34 36 16 21 23 26 22 26 28 19 16 16 17 18 18 10 5 -0 -0 -0 1 -11 -16 -17 -24 -20 14 53 18 9 4 22 34 32 26 29 33
162 78 77 62 108 96 51 37 36 24 19 21 29 27 29 26 24 22 22 24 22 18 12 7 6 9 3 -1 -6 -15 -7 17 53 66 24 26 24 37 40 45 43 43 40
127 93 54 72 55 99 72 50 40 36 29 19 25 30 33 31 27 23 23 26 25 25 24 17 13 8 3 -0 -16 -1 17 25 40 81 66 34 36 49 49 47 48 48 49
135 70 68 46 63 61 84 69 42 45 34 30 26 28 31 34 29 24 24 26 25 31 30 24 15 6 2 -0 -7 14 12 19 30 7 26 56 68 63 59 58 56 60 62
130 111 85 49 34 59 63 67 63 48 39 35 35 32 30 33 32 23 27 31 32 29 26 23 16 8 4 3 7 20 6 7 16 16 37 59 76 82 79 70 67 67 69
136 111 127 60 59 62 58 63 56 56 52 42 39 38 25 29 34 27 26 30 30 27 21 18 11 2 -0 3 6 17 16 24 21 -22 57 58 72 93 91 81 75 74 73
146 103 105 95 48 61 79 61 47 42 56 48 36 41 44 21 24 33 27 26 28 25 19 12 5 -1 -1 2 13 25 7 19 38 -0 54 119 96 98 101 89 77 73 71
140 102 94 108 70 61 54 81 97 69 45 46 39 38 26 25 14 15 21 28 22 24 23 14 3 -6 -1 9 20 29 18 33 42 42 98 115 81 86 94 107 91 80 74
135 137 116 106 85 55 63 99 117 118 87 58 35 37 10 6 6 1 36 38 34 23 30 21 8 -8 -15 -6 10 29 19 30 56 68 96 86 69 89 98 115 109 90 82
179 161 147 128 132 65 81 100 113 123 111 101 52 31 5 -5 -2 30 55 54 41 27 27 28 12 -12 -24 -7 3 27 29 17 58 55 102 67 74 82 93 106 119 109 94
150 182 159 124 139 130 124 119 105 97 112 110 93 68 16 -8 24 51 55 57 52 45 27 26 16 -1 -20 -38 -5 13 30 22 19 46 78 80 84 91 102 113 124 129 120
45 182 173 142 143 153 216 118 121 114 113 118 104 81 64 8 21 64 70 62 52 64 37 36 30 23 -0 -7 -24 -4 18 31 44 52 97 116 99 107 106 116 134 145 136
118 141 204 197 190 140 192 154 123 127 115 117 108 114 84 40 42 50 85 87 70 63 49 36 33 29 40 20 14 20 43 48 56 56 78 122 123 99 120 123 126 143 145
126 8 213 293 258 156 115 209 139 137 155 137 129 117 103 56 57 65 59 78 72 81 65 64 55 45 55 64 56 48 65 67 67 62 63 80 142 132 112 111 119 124 128
64 -33 42 299 322 261 123 162 177 131 180 168 155 133 114 79 74 105 76 64 70 88 113 85 46 92 75 88 85 52 50 79 94 88 88 78 78 128 139 117 122 133 129
179 105 110 109 328 304 216 160 201 187 176 187 153 163 158 115 79 153 115 85 88 110 118 142 129 114 138 107 90 75 79 84 102 122 120 118 114 108 105 122 125 124 135
222 161 281 413 186 377 306 229 207 212 178 207 198 155 187 173 125 130 155 99 131 124 132 169 185 165 128 155 147 99 71 42 47 74 125 126 140 136 137 118 117 127 110
151 159 158 390 370 144 349 266 231 285 250 217 217 216 232 217 176 157 173 173 123 154 140 181 218 219 177 175 172 156 102 77 99 128 132 140 135 138 122 143 145 162 151
89 121 213 177 330 299 141 216 237 239 226 208 213 198 236 218 230 207 183 182 197 185 168 201 223 205 188 179 202 227 182 164 130 111 112 129 110 130 104 107 134 157 163
108 116 123 175 260 363 302 148 250 254 207 230 171 207 192 227 227 249 259 215 186 215 208 200 236 244 258 176 226 192 197 177 138 117 118 91 135 173 137 93 88 132 163
101 57 90 68 205 375 333 270 232 168 189 160 200 195 217 191 221 246 267 261 227 198 198 206 221 229 257 223 257 261 218 179 177 185 108 110 162 194 173 164 154 159 178
256 127 61 13 89 233 345 431 373 287 260 154 150 133 171 194 242 267 283 290 243 211 194 216 221 240 243 244 247 264 298 283 223 242 192 158 149 161 227 228 209 220 205

GFSSE_con_3kmhel_270.txt.gz
Helicity
51 48 36 28 75 61 43 52 59 52 80 90 74 64 54 59 70 70 57 54 64 51 39 19 15 12 1 3 12 23 30 43 46 38 18 7 -1 16 15 8 9 7 14
146 75 36 46 75 64 42 37 39 43 60 80 71 74 55 56 62 62 57 55 48 34 25 16 7 1 -5 -5 5 11 19 27 44 41 28 20 25 21 19 16 18 16 23
193 107 48 51 77 67 50 30 30 35 44 62 68 75 66 49 47 44 34 34 27 21 15 -0 -9 -8 -2 1 1 6 5 9 1 -1 7 11 8 26 26 26 26 34 37
213 137 66 43 81 70 57 32 29 25 31 49 56 65 63 43 26 21 19 17 17 19 -0 -6 -12 -9 1 4 2 -1 4 9 1 -5 3 7 12 27 33 34 36 39 42
161 119 68 63 57 79 59 42 34 24 13 28 44 57 60 47 29 20 15 15 18 16 6 1 -2 -0 9 21 13 1 -7 -6 13 -4 -2 10 6 24 39 43 46 53 54
124 91 92 51 63 67 66 50 39 35 15 20 25 43 55 52 39 24 17 19 23 23 15 12 11 25 21 18 10 -4 -12 -3 21 16 13 22 20 40 49 53 58 59 53
125 81 88 39 52 68 54 61 51 32 28 18 20 26 39 47 43 24 17 24 32 32 25 21 25 27 16 4 -1 -13 -28 -9 18 19 23 23 37 60 62 58 57 56 55
160 108 98 32 17 52 58 50 54 47 25 27 16 16 29 38 40 34 24 22 32 38 33 22 21 20 9 -3 -19 -26 -35 17 23 1 22 8 62 73 66 64 64 62 66
129 143 113 64 17 -0 30 62 51 40 40 29 22 14 19 28 34 33 35 30 30 29 26 22 18 14 9 9 2 -9 -15 -14 -12 -1 42 10 51 79 85 79 76 72 72
90 116 132 102 66 27 2 24 63 47 35 28 30 25 20 24 29 26 28 33 34 27 22 18 12 8 11 13 10 3 3 -8 -13 -5 42 39 58 84 92 92 86 82 75
75 79 110 142 103 74 37 8 34 52 46 35 23 31 31 24 26 27 19 23 31 28 22 16 11 10 13 17 13 -4 -13 -8 -16 -12 40 65 49 72 76 85 91 86 81
66 80 89 115 150 130 80 48 39 49 56 53 34 29 22 25 23 25 24 18 21 27 19 13 9 9 13 17 7 1 5 21 13 7 45 100 86 67 75 82 93 96 91
96 106 97 125 143 170 151 108 71 74 79 68 63 46 23 14 19 29 33 30 28 20 34 19 10 8 3 7 10 9 19 29 38 30 56 113 109 77 83 85 98 110 109
120 121 114 143 143 164 204 164 107 88 83 82 70 62 56 31 10 12 26 30 33 34 32 34 15 -3 -14 -8 3 13 22 26 35 26 32 104 105 75 90 93 98 115 126
128 87 114 164 154 183 214 206 177 139 93 87 87 68 76 58 43 28 24 41 29 39 31 37 22 -0 -23 -30 -17 -4 5 24 34 48 49 122 111 101 103 106 108 113 132
350 215 125 135 159 189 223 224 203 184 155 116 98 82 72 72 58 59 48 41 33 48 42 46 40 15 -14 -11 -20 -13 -8 23 43 50 75 90 112 127 125 125 125 123 131
363 334 244 146 154 208 203 221 221 206 200 170 120 102 83 72 67 79 71 64 41 42 55 62 46 37 22 15 -10 -0 14 23 39 66 98 114 131 123 122 124 133 138 139
333 381 379 236 49 131 213 208 219 194 211 201 184 147 94 72 74 88 91 80 86 71 54 58 72 52 35 28 17 16 41 51 50 67 87 129 142 141 121 117 118 133 142
210 331 398 333 222 71 140 226 205 201 211 191 189 182 140 110 89 83 82 92 114 111 91 69 61 86 71 40 33 19 17 38 35 41 44 53 90 118 136 123 145 134 135
77 153 244 306 348 256 -1 126 192 180 174 195 190 185 166 140 124 112 85 94 126 133 112 106 88 96 101 82 70 53 45 49 42 41 29 33 49 73 100 97 91 87 104
22 103 123 229 340 248 195 55 123 207 175 188 188 167 194 180 148 132 121 110 143 156 129 114 120 114 85 117 157 88 64 43 20 36 50 47 46 76 95 118 110 79 50
34 37 142 146 212 237 185 203 44 132 193 209 219 200 215 195 179 168 148 144 141 162 167 157 166 161 131 201 191 179 106 72 68 52 66 73 74 95 90 92 104 129 122
67 103 101 103 74 94 213 209 131 60 151 188 207 203 211 212 185 175 174 187 198 191 178 173 198 209 183 209 224 226 162 129 103 88 98 101 111 162 128 97 109 133 148
127 108 112 76 36 5 50 204 290 122 209 105 156 158 215 231 214 186 188 212 224 230 218 198 202 200 204 193 254 178 232 178 115 81 91 89 102 98 108 102 80 95 148
37 80 58 66 80 17 -28 17 165 223 296 239 187 161 112 120 111 224 238 235 243 261 225 236 211 217 226 187 236 266 220 209 218 172 85 139 135 116 131 136 122 99 122
66 90 68 25 34 73 -28 -59 46 263 236 316 307 348 276 185 160 331 343 160 233 275 269 266 248 215 236 230 230 234 247 260 226 242 205 141 141 72 111 138 140 129 157

GFSSE_con_3kmhel_273.txt.gz
Helicity
-12 3 6 14 49 106 92 95 85 80 91 140 184 163 128 92 62 36 24 29 45 59 59 30 5 -0 -6 17 31 44 49 51 36 30 15 12 14 15 12 12 13 14 24
90 25 33 6 54 85 96 94 96 83 95 96 138 139 117 94 60 35 24 25 34 33 35 7 -2 -4 2 8 24 29 29 24 22 20 18 18 16 14 16 22 26 25 28
121 56 55 16 47 75 91 89 93 75 70 72 88 105 94 77 51 35 23 21 20 17 21 3 -0 1 4 13 5 5 5 -1 -3 -8 -6 5 6 18 26 30 32 40 43
161 108 57 46 45 61 71 75 85 74 49 56 73 77 74 71 53 39 27 21 25 29 14 3 4 18 11 8 10 5 -1 -8 -11 -14 -11 -5 5 22 32 37 39 41 44
138 103 90 52 63 47 49 57 61 69 52 50 57 62 63 57 61 47 29 25 34 31 21 16 16 19 16 12 12 5 1 -23 -20 -21 -19 -5 4 26 41 46 45 56 59
132 73 107 81 52 62 39 36 44 53 50 51 50 49 51 53 54 53 36 26 31 31 27 25 27 34 23 17 15 1 -18 -30 -30 -11 -6 8 18 45 57 61 63 64 59
141 98 71 104 54 44 56 34 24 32 41 42 50 46 43 49 46 44 39 33 31 31 31 34 40 42 32 17 1 -17 -20 3 8 16 16 9 24 67 74 74 66 59 55
138 118 98 92 82 24 22 42 25 24 17 33 38 49 47 43 43 36 33 35 38 40 38 39 36 30 27 12 -10 -20 -16 1 11 24 32 21 27 78 85 79 70 63 63
109 123 118 107 105 52 5 4 22 20 20 13 25 34 47 41 39 31 32 33 36 41 45 39 32 27 14 3 -13 -22 -24 -25 -16 -5 44 32 39 63 84 84 80 75 74
53 97 107 120 135 92 40 -0 -9 14 12 14 20 17 29 40 32 30 32 27 30 33 42 45 32 22 14 5 -5 -22 -27 -27 -18 -10 15 36 45 38 59 75 80 83 81
10 33 104 114 127 126 100 58 11 -10 -6 8 19 24 26 19 28 25 26 32 32 21 29 37 34 23 18 12 6 -9 -20 -8 -3 -8 17 62 74 59 51 63 79 87 92
67 17 24 102 140 157 151 138 82 53 6 -2 11 25 24 18 18 17 17 27 31 31 20 23 31 29 27 29 23 18 2 -2 -0 3 8 59 88 81 61 68 80 93 101
74 10 5 27 81 184 203 210 171 130 73 12 12 23 28 26 26 31 22 20 27 24 33 27 26 31 28 28 20 10 16 4 7 10 4 55 103 85 65 75 78 93 99
269 261 8 7 10 125 187 237 234 214 161 97 43 35 47 38 30 32 32 27 28 30 30 28 21 12 19 23 18 -2 -4 13 19 12 12 35 95 113 81 82 81 93 97
262 236 191 21 46 47 152 182 206 234 224 179 124 82 75 66 42 37 26 40 32 42 32 30 20 10 -2 2 7 -3 -22 -4 12 24 24 36 104 129 103 94 93 99 106
302 269 205 179 61 66 95 134 174 202 218 241 200 141 116 91 78 60 43 39 29 44 45 39 30 15 -2 9 -13 -10 -25 -14 15 25 43 56 93 127 129 119 119 118 120
282 258 222 194 155 85 61 94 138 130 213 232 232 208 167 136 108 94 78 61 46 56 47 47 30 14 2 14 -11 -10 -15 -23 -8 23 56 74 86 94 118 137 136 128 120
200 288 263 168 206 169 75 90 113 102 116 187 222 222 211 180 144 142 102 75 79 83 74 64 71 43 8 -6 -14 -12 -0 6 -9 8 42 70 100 113 109 127 141 131 119
110 169 263 254 199 204 148 85 88 88 98 112 165 192 175 207 201 181 147 112 121 99 98 93 97 102 74 30 10 7 14 25 21 29 26 53 85 116 135 113 128 134 133
123 137 131 184 227 163 114 145 77 96 80 68 106 162 195 198 204 217 183 166 167 133 108 127 101 125 125 91 75 39 42 35 49 36 22 51 77 75 84 93 88 82 113
118 153 151 130 208 198 126 99 102 91 73 70 55 67 98 165 180 210 205 190 200 168 131 139 144 130 114 138 135 77 53 56 -10 -0 48 47 15 26 45 56 73 84 84
26 89 172 172 127 154 139 78 34 101 83 -0 31 72 81 117 159 183 187 197 216 210 179 166 173 166 147 172 155 162 65 38 92 68 80 57 56 76 74 76 96 104 110
54 45 32 102 156 137 178 83 40 115 168 151 129 29 36 103 137 155 195 200 196 216 203 205 207 184 141 135 179 193 138 116 58 62 83 115 114 126 109 90 112 111 109
31 40 46 41 77 138 161 59 -16 8 95 133 214 192 368 203 147 148 69 97 184 230 197 219 240 231 221 160 172 195 200 169 71 -25 2 21 68 99 118 116 96 95 76
-14 33 37 20 45 84 121 114 31 -57 -24 38 128 128 278 448 512 403 258 244 175 113 126 181 241 282 275 226 203 197 185 167 182 149 10 -3 29 52 75 107 100 84 71
39 38 22 11 18 55 94 116 106 114 -22 -30 75 129 87 410 346 522 439 255 304 223 301 235 158 100 138 231 245 233 230 196 115 105 107 34 47 -27 32 60 69 66 77

GFSSE_con_3kmhel_279.txt.gz
Helicity
21 35 14 5 -15 26 85 96 96 110 126 132 129 114 78 65 49 33 37 53 38 37 1 -9 -6 -3 3 3 7 21 26 32 18 13 13 19 18 18 17 17 21 22 19
77 39 12 12 -6 31 78 114 108 123 154 164 140 101 67 60 47 34 36 58 51 39 2 -6 -4 -14 -16 -9 12 24 29 6 -1 -5 -1 4 4 11 13 18 19 27 28
82 46 33 9 20 41 66 104 107 111 137 141 124 101 60 46 29 30 37 51 57 37 19 5 -4 -9 -13 -9 4 -6 -15 -18 -21 -19 -17 4 6 14 19 21 26 32 33
80 44 39 10 26 49 71 89 93 96 95 97 98 83 60 36 23 24 29 41 41 31 34 19 4 1 -0 21 42 16 -7 -16 -20 -14 -8 -0 8 17 24 27 29 30 29
51 40 36 24 18 44 59 86 83 90 78 63 61 57 42 33 28 14 15 26 36 23 26 43 30 20 34 39 18 6 -5 -11 -13 1 -4 4 12 17 22 23 29 32 36
27 31 30 16 29 40 50 57 68 71 64 56 36 26 21 21 29 25 8 15 34 30 20 29 36 35 32 22 17 13 -11 -10 5 -8 -5 -4 8 5 15 16 14 24 36
35 31 30 11 16 37 43 51 50 55 59 48 40 25 11 7 11 17 17 9 27 39 32 18 29 42 34 18 18 11 1 -7 2 -7 -3 2 7 11 20 28 30 33 36
35 36 24 27 20 31 43 43 44 43 43 45 39 26 19 11 7 2 16 19 29 40 36 34 37 33 24 16 15 12 16 26 13 8 3 3 -4 14 27 34 36 37 41
62 64 45 17 3 12 38 58 62 52 39 40 38 37 35 27 24 14 10 24 29 34 35 38 33 27 20 10 7 19 24 33 40 39 16 3 20 28 35 39 39 40 38
95 63 55 49 24 8 -4 5 62 74 69 59 50 42 40 44 40 29 27 24 29 32 36 39 38 27 17 13 5 7 23 34 40 50 42 -3 17 34 40 41 40 40 41
151 124 110 94 27 19 12 9 -4 38 78 85 82 66 56 37 35 41 37 38 42 39 37 38 38 38 32 25 20 21 24 26 33 40 28 17 6 20 35 42 58 53 48
194 137 82 72 66 21 12 23 16 27 38 52 80 96 78 55 46 40 41 41 38 47 46 46 44 48 45 35 33 26 18 19 19 22 20 16 6 16 25 39 53 76 65
171 134 121 113 107 35 1 16 34 19 32 63 57 69 80 92 81 64 61 63 59 62 62 60 55 57 52 49 42 38 30 22 20 11 5 15 2 -8 9 48 71 89 90
188 188 177 135 124 140 86 9 9 24 23 28 50 62 71 84 93 98 95 80 76 74 65 66 72 64 59 57 50 37 28 30 24 16 -2 2 -1 -5 -14 26 74 91 103
186 183 176 160 156 120 109 76 39 29 39 17 17 33 58 65 71 82 94 106 97 87 75 70 66 67 63 58 57 46 32 28 19 17 3 -7 -5 -1 -4 1 62 87 96
181 181 173 151 164 170 111 87 80 53 38 39 27 16 20 48 53 65 67 77 84 90 93 79 63 65 66 70 56 54 39 30 24 21 17 3 -2 3 3 2 25 63 88
193 150 170 183 160 152 148 138 81 61 78 70 66 54 33 37 32 43 51 61 68 76 67 73 72 77 73 77 64 59 57 37 26 12 24 31 25 12 19 27 31 50 69
214 229 193 136 176 167 139 130 118 94 68 86 72 95 88 44 26 34 41 43 47 57 66 71 77 75 72 73 71 72 66 56 35 24 21 34 44 54 52 50 65 76 76
123 208 230 222 215 190 170 138 140 180 142 116 87 85 62 65 44 41 41 42 50 49 51 61 65 73 64 59 60 59 62 57 45 42 25 28 34 46 71 73 81 88 108
63 48 83 136 198 203 171 190 132 162 213 211 240 242 136 56 52 61 55 44 57 60 56 65 69 75 82 75 71 65 61 65 65 62 51 49 41 44 54 57 73 62 69
100 70 39 66 139 170 196 236 204 292 226 228 255 225 230 181 168 70 68 62 41 53 46 44 54 56 62 66 78 61 53 39 56 78 77 75 60 53 57 78 92 85 81
92 73 77 62 67 70 93 115 71 163 133 207 260 256 270 293 237 172 188 121 67 53 36 42 55 74 63 70 97 70 48 40 43 50 85 90 74 82 78 61 66 64 58
73 63 39 27 40 66 74 71 89 85 105 176 217 200 258 293 305 297 158 161 171 162 94 61 43 57 100 91 92 143 132 84 45 6 16 53 74 87 85 49 69 62 61
10 9 20 25 11 9 37 39 85 86 100 106 91 131 178 224 280 313 286 128 91 157 225 235 241 160 121 124 118 114 137 157 107 36 64 14 39 57 60 80 74 59 51
-4 -5 -19 -14 19 17 12 25 25 56 50 72 99 145 175 196 246 251 276 212 141 121 165 153 134 174 205 187 137 139 149 185 196 233 85 56 60 38 6 42 69 70 61
12 9 -1 -11 2 14 19 13 12 38 58 77 121 136 138 200 233 261 289 298 207 204 205 237 248 188 148 40 201 207 217 151 139 164 167 96 61 66 80 71 39 45 39